sat.trackr.live / text

‹ back to catalog

STARLINK-6353

NORAD 57056 · 2023-088J

PAYLOAD ACTIVE UNKNOWN

§ Identity

Operator
Country
US
Launch date
2023-06-22
Launch site
AFWTR
Launch vehicle
Mass (kg)
RCS (m²)

Purposes: comms

External: N2YO · Heavens-Above · Gunter

§ Orbital elements

Epoch: 2026-09-20T22:01:42.240864Z

Period
94.27 min
Inclination
43.0007°
Eccentricity
0.0001566
Mean motion
15.27578915 rev/d
Perigee alt
482.0 km
Apogee alt
484.1 km
Semi-major
6,861.2 km
B*
2.4814e-5
RAAN
87.8084°
Arg perigee
259.0110°
Mean anomaly
101.0566°
Rev number
18,019

§ Raw data

STARLINK-63531 57056U 23088J   26263.91785001  .00000421  00000+0  24814-4 0  99932 57056  43.0007  87.8084 0001566 259.0110 101.0566 15.27578915180198

JSON: /api/v1/satellites/57056 · /tle

For live sub-satellite position, see the globe view (requires WebGL).

§ Visibility from observer

Set your observer location to see the next 7 days of passes ≥ 10°. The values pass through the URL so the page stays shareable.

No JS? Fill the form by hand. The geolocation button needs JavaScript.